Location: Chmeln�
(49.6483°N, 14.9871°E)
Time: 08:17:01
(UTC+00:00)

Lacrosse 5 rocket - Pass Details

Date: 22 January 2021
Orbit: 465 x 630 km, 57.0° (Epoch: 04 March)

Event Time Altitude Azimuth Distance (km) Brightness Sun altitude
Exits shadow 03:30:30 21° 90° (E) 1,174 3.6 -31.1°
Drops below altitude 10° 03:31:58 10° 99° (E) 1,707 4.7 -30.9°
Sets 03:34:08 0° 105° (ESE) 2,563 5.7 -30.5°
